Location: Vancouver
(49.2500°N, 123.1330°W)
Time: 04:08:07
(UTC-07:00)

ERS-2 - Visible Passes

Search period start: 25 May 2016 00:00
Search period end: 04 June 2016 00:00
Orbit: 506 x 511 km, 98.5° (Epoch: 24 May)

Date Brightness Start Highest point End Pass type
(mag) Time Alt. Az. Time Alt. Az. Time Alt. Az.
25 May 2.1 03:03:20 10° NNE 03:07:05 88° ESE 03:08:59 28° SSW visible
26 May 2.6 02:46:29 10° NNE 02:50:10 55° ESE 02:51:56 27° S visible
26 May 4.3 04:21:21 10° NNW 04:23:35 15° WNW 04:25:47 10° W visible
27 May 3.3 02:29:44 10° NNE 02:33:11 35° E 02:34:52 23° SSE visible
27 May 3.8 04:03:54 10° NNW 04:06:50 22° WNW 04:09:43 10° WSW visible
28 May 4.0 02:13:09 10° NE 02:16:09 23° E 02:17:48 17° SE visible
28 May 3.3 03:46:40 10° N 03:50:01 32° WNW 03:52:40 14° SW visible
29 May 4.5 01:56:50 10° NE 01:59:05 15° E 02:00:44 12° ESE visible
29 May 2.6 03:29:33 10° N 03:33:11 49° WNW 03:35:36 19° SW visible
30 May 2.1 03:12:33 10° NNE 03:16:17 78° WNW 03:18:31 23° SSW visible
31 May 2.3 02:55:38 10° NNE 02:59:21 66° ESE 03:01:26 24° S visible
31 May 4.4 04:30:50 10° NNW 04:32:41 13° WNW 04:34:33 10° W visible
01 Jun 3.1 02:38:49 10° NNE 02:42:22 41° E 02:44:20 22° SSE visible
01 Jun 4.0 04:13:14 10° NNW 04:15:56 19° WNW 04:18:37 10° WSW visible
02 Jun 3.8 02:22:08 10° NE 02:25:20 26° E 02:27:14 18° SE visible
02 Jun 3.5 03:55:55 10° N 03:59:07 28° WNW 04:02:06 11° WSW visible
03 Jun 4.4 02:05:40 10° NE 02:08:15 18° E 02:10:08 13° SE visible
03 Jun 2.9 03:38:44 10° N 03:42:16 42° WNW 03:45:00 15° SW visible
